Year,Month,Day,Hour,Minute,Value (Times are PST for temperature in C)
2009,07,16,08,21,17.60
2009,07,16,08,22,17.60
2009,07,16,08,23,17.70
2009,07,16,08,24,17.80
2009,07,16,08,25,17.90
2009,07,16,08,26,18.10
2009,07,16,08,27,18.20
2009,07,16,08,28,18.30
2009,07,16,08,29,18.40
2009,07,16,08,30,18.50
2009,07,16,08,31,18.60
2009,07,16,08,32,18.60
2009,07,16,08,33,18.60
2009,07,16,08,34,18.60
2009,07,16,08,35,18.50
2009,07,16,08,36,18.40
2009,07,16,08,37,18.30
2009,07,16,08,38,18.20
2009,07,16,08,39,18.20
2009,07,16,08,40,18.30
2009,07,16,08,41,18.40
2009,07,16,08,42,18.50
2009,07,16,08,43,18.60
2009,07,16,08,44,18.60
2009,07,16,08,45,18.80
2009,07,16,08,46,18.80
2009,07,16,08,47,18.90
2009,07,16,08,48,18.90
2009,07,16,08,49,18.90
2009,07,16,08,50,18.80
2009,07,16,08,51,18.80
2009,07,16,08,52,18.90
2009,07,16,08,53,18.90
2009,07,16,08,54,19.00
2009,07,16,08,55,19.00
2009,07,16,08,56,18.90
2009,07,16,08,57,18.90
2009,07,16,08,58,18.90
2009,07,16,08,59,19.00
2009,07,16,09,00,19.00
2009,07,16,09,01,19.00
2009,07,16,09,02,19.10
2009,07,16,09,03,19.00
2009,07,16,09,04,18.80
2009,07,16,09,05,18.60
2009,07,16,09,06,18.40
2009,07,16,09,07,18.20
2009,07,16,09,08,18.10
2009,07,16,09,09,17.90
2009,07,16,09,10,17.80
2009,07,16,09,11,17.80
2009,07,16,09,12,17.70
2009,07,16,09,13,17.70
2009,07,16,09,14,17.60
2009,07,16,09,15,17.60
2009,07,16,09,16,17.70
2009,07,16,09,17,17.70
2009,07,16,09,18,17.70
2009,07,16,09,19,17.90
2009,07,16,09,20,18.00
2009,07,16,09,21,18.10
2009,07,16,09,22,18.10
2009,07,16,09,23,18.00
2009,07,16,09,24,17.90
2009,07,16,09,25,17.80
2009,07,16,09,26,17.70
2009,07,16,09,27,17.80
2009,07,16,09,28,18.00
2009,07,16,09,29,18.10
2009,07,16,09,30,18.20
2009,07,16,09,31,18.20
2009,07,16,09,32,18.20
2009,07,16,09,33,18.20
2009,07,16,09,34,18.10
2009,07,16,09,35,18.20
2009,07,16,09,36,18.20
2009,07,16,09,37,18.20
2009,07,16,09,38,18.30
2009,07,16,09,39,18.30
2009,07,16,09,40,18.40
2009,07,16,09,41,18.40
2009,07,16,09,42,18.40
2009,07,16,09,43,18.40
2009,07,16,09,44,18.40
2009,07,16,09,45,18.30
2009,07,16,09,46,18.30
2009,07,16,09,47,18.30
2009,07,16,09,48,18.40
2009,07,16,09,49,18.40
2009,07,16,09,50,18.40
2009,07,16,09,51,18.40
2009,07,16,09,52,18.40
2009,07,16,09,53,18.40
2009,07,16,09,54,18.60
2009,07,16,09,55,18.70
2009,07,16,09,56,18.90
2009,07,16,09,57,19.00
2009,07,16,09,58,19.10
2009,07,16,09,59,19.20
2009,07,16,10,00,19.20
2009,07,16,10,01,19.20
2009,07,16,10,02,19.10
2009,07,16,10,03,18.90
2009,07,16,10,04,18.90
2009,07,16,10,05,18.90
2009,07,16,10,06,18.80
2009,07,16,10,07,18.90
2009,07,16,10,08,19.00
2009,07,16,10,09,19.10
2009,07,16,10,10,19.10
2009,07,16,10,11,19.00
2009,07,16,10,12,19.00
2009,07,16,10,13,19.00
2009,07,16,10,14,19.10
2009,07,16,10,15,19.20
2009,07,16,10,16,19.40
2009,07,16,10,17,19.60
2009,07,16,10,18,19.70
2009,07,16,10,19,19.80
2009,07,16,10,20,20.00
2009,07,16,10,21,20.00
2009,07,16,10,22,20.00
2009,07,16,10,23,20.00
2009,07,16,10,24,20.00
2009,07,16,10,25,20.10
2009,07,16,10,26,20.20
2009,07,16,10,27,20.20
2009,07,16,10,28,20.20
2009,07,16,10,29,20.20
2009,07,16,10,30,20.20
2009,07,16,10,31,20.10
2009,07,16,10,32,20.00
2009,07,16,10,33,19.90
2009,07,16,10,34,19.80
2009,07,16,10,35,19.80
2009,07,16,10,36,19.70
2009,07,16,10,37,19.60
2009,07,16,10,38,19.50
2009,07,16,10,39,19.50
2009,07,16,10,40,19.50
2009,07,16,10,41,19.40
2009,07,16,10,42,19.20
2009,07,16,10,43,19.10
2009,07,16,10,44,19.00
2009,07,16,10,45,19.00
2009,07,16,10,46,19.20
2009,07,16,10,47,19.40
2009,07,16,10,48,19.50
2009,07,16,10,49,19.30
2009,07,16,10,50,19.10
2009,07,16,10,51,19.00
2009,07,16,10,52,19.00
2009,07,16,10,53,19.00
2009,07,16,10,54,18.90
2009,07,16,10,55,18.80
2009,07,16,10,56,18.70
2009,07,16,10,57,18.80
2009,07,16,10,58,18.80
2009,07,16,10,59,18.70
2009,07,16,11,00,18.60
2009,07,16,11,01,18.50
2009,07,16,11,02,18.40
2009,07,16,11,03,18.50
2009,07,16,11,04,18.60
2009,07,16,11,05,18.60
2009,07,16,11,06,18.60
2009,07,16,11,07,18.60
2009,07,16,11,08,18.60
2009,07,16,11,09,18.60
2009,07,16,11,10,18.70
2009,07,16,11,11,18.70
2009,07,16,11,12,18.70
2009,07,16,11,13,18.90
2009,07,16,11,14,18.90
2009,07,16,11,15,18.90
2009,07,16,11,16,18.80
2009,07,16,11,17,18.50
2009,07,16,11,18,18.30
2009,07,16,11,19,18.20
2009,07,16,11,20,18.20
2009,07,16,11,21,18.30
2009,07,16,11,22,18.40
2009,07,16,11,23,18.40
2009,07,16,11,24,18.40
2009,07,16,11,25,18.30
2009,07,16,11,26,18.20
2009,07,16,11,27,18.20
2009,07,16,11,28,18.10
2009,07,16,11,29,18.10
2009,07,16,11,30,18.00
2009,07,16,11,31,18.00
2009,07,16,11,32,18.00
2009,07,16,11,33,18.10
2009,07,16,11,34,18.10
2009,07,16,11,35,18.10
2009,07,16,11,36,18.20
2009,07,16,11,37,18.30
2009,07,16,11,38,18.20
2009,07,16,11,39,18.20
2009,07,16,11,40,18.20
2009,07,16,11,41,18.30
2009,07,16,11,42,18.40
2009,07,16,11,43,18.30
2009,07,16,11,44,18.30
2009,07,16,11,45,18.30
2009,07,16,11,46,18.40
2009,07,16,11,47,18.50
2009,07,16,11,48,18.50
2009,07,16,11,49,18.60
2009,07,16,11,50,18.70
2009,07,16,11,51,18.80
2009,07,16,11,52,18.80
2009,07,16,11,53,18.90
2009,07,16,11,54,19.00
2009,07,16,11,55,19.10
2009,07,16,11,56,19.10
2009,07,16,11,57,19.20
2009,07,16,11,58,19.30
2009,07,16,11,59,19.30
2009,07,16,12,00,19.30
2009,07,16,12,01,19.40
2009,07,16,12,02,19.40
2009,07,16,12,03,19.60
2009,07,16,12,04,19.70
2009,07,16,12,05,19.80
2009,07,16,12,06,19.90
2009,07,16,12,07,20.00
2009,07,16,12,08,20.00
2009,07,16,12,09,19.90
2009,07,16,12,10,19.90
2009,07,16,12,11,20.00
2009,07,16,12,12,20.10
2009,07,16,12,13,20.10
2009,07,16,12,14,20.10
2009,07,16,12,15,19.90
2009,07,16,12,16,19.80
2009,07,16,12,17,19.70
2009,07,16,12,18,19.60
2009,07,16,12,19,19.60
2009,07,16,12,20,19.50
2009,07,16,12,21,19.40
2009,07,16,12,22,19.50
2009,07,16,12,23,19.50
2009,07,16,12,24,19.50
2009,07,16,12,25,19.60
2009,07,16,12,26,19.70
2009,07,16,12,27,19.80
2009,07,16,12,28,19.80
2009,07,16,12,29,19.70
2009,07,16,12,30,19.70
2009,07,16,12,31,19.70
2009,07,16,12,32,19.80
2009,07,16,12,33,19.80
2009,07,16,12,34,19.70
2009,07,16,12,35,19.70
2009,07,16,12,36,19.60
2009,07,16,12,37,19.70
2009,07,16,12,38,19.70
2009,07,16,12,39,19.70
2009,07,16,12,40,19.60
2009,07,16,12,41,19.60
2009,07,16,12,42,19.60
2009,07,16,12,43,19.60
2009,07,16,12,44,19.60
2009,07,16,12,45,19.50
2009,07,16,12,46,19.40
2009,07,16,12,47,19.40
2009,07,16,12,48,19.40
2009,07,16,12,49,19.40
2009,07,16,12,50,19.50
2009,07,16,12,51,19.60
2009,07,16,12,52,19.60
2009,07,16,12,53,19.70
2009,07,16,12,54,19.90
2009,07,16,12,55,20.00
2009,07,16,12,56,20.10
2009,07,16,12,57,20.10
2009,07,16,12,58,20.30
2009,07,16,12,59,20.40
2009,07,16,13,00,20.50
2009,07,16,13,01,20.50
2009,07,16,13,02,20.50
2009,07,16,13,03,20.60
2009,07,16,13,04,20.80
2009,07,16,13,05,20.90
2009,07,16,13,06,21.10
2009,07,16,13,07,21.20
2009,07,16,13,08,21.30
2009,07,16,13,09,21.30
2009,07,16,13,10,21.30
2009,07,16,13,11,21.20
2009,07,16,13,12,21.10
2009,07,16,13,13,21.00
2009,07,16,13,14,21.00
2009,07,16,13,15,20.90
2009,07,16,13,16,20.90
2009,07,16,13,17,20.90
2009,07,16,13,18,20.90
2009,07,16,13,19,20.80
2009,07,16,13,20,20.80
2009,07,16,13,21,20.90
2009,07,16,13,22,21.10
2009,07,16,13,23,21.20
2009,07,16,13,24,21.30
2009,07,16,13,25,21.40
2009,07,16,13,26,21.50
2009,07,16,13,27,21.40
2009,07,16,13,28,21.40
2009,07,16,13,29,21.40
2009,07,16,13,30,21.40
2009,07,16,13,31,21.40
2009,07,16,13,32,21.40
2009,07,16,13,33,21.40
2009,07,16,13,34,21.50
2009,07,16,13,35,21.60
2009,07,16,13,36,21.70
2009,07,16,13,37,21.80
2009,07,16,13,38,22.00
2009,07,16,13,39,22.10
2009,07,16,13,40,22.30
2009,07,16,13,41,22.40
2009,07,16,13,42,22.40
2009,07,16,13,43,22.50
2009,07,16,13,44,22.50
2009,07,16,13,45,22.60
2009,07,16,13,46,22.70
2009,07,16,13,47,22.60
2009,07,16,13,48,22.60
2009,07,16,13,49,22.60
2009,07,16,13,50,22.70
2009,07,16,13,51,22.70
2009,07,16,13,52,22.80
2009,07,16,13,53,22.80
2009,07,16,13,54,22.80
2009,07,16,13,55,22.80
2009,07,16,13,56,22.80
2009,07,16,13,57,22.60
2009,07,16,13,58,22.50
2009,07,16,13,59,22.40
2009,07,16,14,00,22.30
2009,07,16,14,01,22.30
2009,07,16,14,02,22.30
2009,07,16,14,03,22.30
2009,07,16,14,04,22.30
2009,07,16,14,05,22.30
2009,07,16,14,06,22.40
2009,07,16,14,07,22.60
2009,07,16,14,08,22.80
2009,07,16,14,09,22.90
2009,07,16,14,10,22.90
2009,07,16,14,11,23.00
2009,07,16,14,12,23.10
2009,07,16,14,13,23.20
2009,07,16,14,14,23.40
2009,07,16,14,15,23.50
2009,07,16,14,16,23.60
2009,07,16,14,17,23.70
2009,07,16,14,18,23.60
2009,07,16,14,19,23.70
2009,07,16,14,20,23.60
2009,07,16,14,21,23.60
2009,07,16,14,22,23.70
2009,07,16,14,23,23.70
2009,07,16,14,24,23.70
2009,07,16,14,25,23.70
2009,07,16,14,26,23.80
2009,07,16,14,27,24.00
2009,07,16,14,28,24.10
2009,07,16,14,29,24.10
2009,07,16,14,30,24.10
2009,07,16,14,31,24.10
2009,07,16,14,32,24.10
2009,07,16,14,33,24.10
2009,07,16,14,34,24.10
2009,07,16,14,35,24.00
2009,07,16,14,36,24.00
2009,07,16,14,37,24.00
2009,07,16,14,38,24.10
2009,07,16,14,39,24.10
2009,07,16,14,40,24.20
2009,07,16,14,41,24.20
2009,07,16,14,42,24.20
2009,07,16,14,43,24.10
2009,07,16,14,44,24.10
2009,07,16,14,45,24.10
2009,07,16,14,46,24.00
2009,07,16,14,47,24.00
2009,07,16,14,48,24.00
2009,07,16,14,49,24.00
2009,07,16,14,50,24.00
2009,07,16,14,51,24.10
2009,07,16,14,52,24.20
2009,07,16,14,53,24.20
2009,07,16,14,54,24.30
2009,07,16,14,55,24.30
2009,07,16,14,56,24.30
2009,07,16,14,57,24.40
2009,07,16,14,58,24.30
2009,07,16,14,59,24.20
2009,07,16,15,00,24.20
2009,07,16,15,01,24.10
2009,07,16,15,02,24.20
2009,07,16,15,03,24.30
2009,07,16,15,04,24.30
2009,07,16,15,05,24.40
2009,07,16,15,06,24.50
2009,07,16,15,07,24.60
2009,07,16,15,08,24.80
2009,07,16,15,09,24.90
2009,07,16,15,10,24.90
2009,07,16,15,11,25.00
2009,07,16,15,12,25.10
2009,07,16,15,13,25.20
2009,07,16,15,14,25.10
2009,07,16,15,15,25.10
2009,07,16,15,16,25.10
2009,07,16,15,17,24.90
2009,07,16,15,18,24.80
2009,07,16,15,19,24.90
2009,07,16,15,20,24.90
2009,07,16,15,21,24.80
2009,07,16,15,22,24.70
2009,07,16,15,23,24.70
2009,07,16,15,24,24.70
2009,07,16,15,25,24.70
2009,07,16,15,26,24.80
2009,07,16,15,27,24.80
2009,07,16,15,28,24.90
2009,07,16,15,29,24.80
2009,07,16,15,30,24.80
2009,07,16,15,31,24.80
2009,07,16,15,32,24.80
2009,07,16,15,33,24.80
2009,07,16,15,34,24.80
2009,07,16,15,35,24.70
2009,07,16,15,36,24.60
2009,07,16,15,37,24.50
2009,07,16,15,38,24.50
2009,07,16,15,39,24.60
2009,07,16,15,40,24.60
2009,07,16,15,41,24.70
2009,07,16,15,42,24.70
2009,07,16,15,43,24.70
2009,07,16,15,44,24.70
2009,07,16,15,45,24.70
2009,07,16,15,46,24.70
2009,07,16,15,47,24.70
2009,07,16,15,48,24.80
2009,07,16,15,49,24.80
2009,07,16,15,50,25.00
2009,07,16,15,51,25.10
2009,07,16,15,52,25.10
2009,07,16,15,53,25.20
2009,07,16,15,54,25.30
2009,07,16,15,55,25.30
2009,07,16,15,56,25.40
2009,07,16,15,57,25.50
2009,07,16,15,58,25.50
2009,07,16,15,59,25.60
2009,07,16,16,00,25.70
2009,07,16,16,01,25.80
2009,07,16,16,02,25.90
2009,07,16,16,03,26.00
2009,07,16,16,04,26.10
2009,07,16,16,05,26.10
2009,07,16,16,06,26.10
2009,07,16,16,07,26.10
2009,07,16,16,08,26.10
2009,07,16,16,09,26.00
2009,07,16,16,10,25.90
2009,07,16,16,11,25.80
2009,07,16,16,12,25.70
2009,07,16,16,13,25.60
2009,07,16,16,14,25.60
2009,07,16,16,15,25.60
2009,07,16,16,16,25.70
2009,07,16,16,17,25.70
2009,07,16,16,18,25.70
2009,07,16,16,19,25.70
2009,07,16,16,20,25.80
2009,07,16,16,21,25.80
2009,07,16,16,22,25.80
2009,07,16,16,23,25.80
2009,07,16,16,24,25.80
2009,07,16,16,25,25.80
2009,07,16,16,26,25.90
2009,07,16,16,27,25.90
2009,07,16,16,28,25.90
2009,07,16,16,29,25.90
2009,07,16,16,30,25.90
2009,07,16,16,31,25.90
2009,07,16,16,32,25.90
2009,07,16,16,33,25.90
2009,07,16,16,34,25.90
2009,07,16,16,35,26.00
2009,07,16,16,36,26.10
2009,07,16,16,37,26.20
2009,07,16,16,38,26.30
2009,07,16,16,39,26.40
2009,07,16,16,40,26.40
2009,07,16,16,41,26.40
2009,07,16,16,42,26.40
2009,07,16,16,43,26.40
2009,07,16,16,44,26.30
2009,07,16,16,45,26.30
2009,07,16,16,46,26.30
2009,07,16,16,47,26.40
2009,07,16,16,48,26.50
2009,07,16,16,49,26.50
2009,07,16,16,50,26.50
2009,07,16,16,51,26.40
2009,07,16,16,52,26.40
2009,07,16,16,53,26.40
2009,07,16,16,54,26.40
2009,07,16,16,55,26.40
2009,07,16,16,56,26.30
2009,07,16,16,57,26.30
2009,07,16,16,58,26.40
2009,07,16,16,59,26.40
2009,07,16,17,00,26.40
2009,07,16,17,01,26.40
2009,07,16,17,02,26.40
2009,07,16,17,03,26.30
2009,07,16,17,04,26.30
2009,07,16,17,05,26.30
2009,07,16,17,06,26.30
2009,07,16,17,07,26.30
2009,07,16,17,08,26.20
2009,07,16,17,09,26.20
2009,07,16,17,10,26.20
2009,07,16,17,11,26.20
2009,07,16,17,12,26.20
2009,07,16,17,13,26.10
2009,07,16,17,14,26.10
2009,07,16,17,15,26.00
2009,07,16,17,16,26.00
2009,07,16,17,17,25.90
2009,07,16,17,18,25.90
2009,07,16,17,19,26.00
2009,07,16,17,20,26.00
2009,07,16,17,21,26.10
2009,07,16,17,22,26.10
2009,07,16,17,23,26.10
2009,07,16,17,24,26.20
2009,07,16,17,25,26.30
2009,07,16,17,26,26.40
2009,07,16,17,27,26.40
2009,07,16,17,28,26.40
2009,07,16,17,29,26.30
2009,07,16,17,30,26.30
2009,07,16,17,31,26.20
2009,07,16,17,32,26.10
2009,07,16,17,33,26.00
2009,07,16,17,34,25.90
2009,07,16,17,35,25.90
2009,07,16,17,36,25.90
2009,07,16,17,37,25.90
2009,07,16,17,38,25.90
2009,07,16,17,39,25.90
2009,07,16,17,40,25.80
2009,07,16,17,41,25.80
2009,07,16,17,42,25.80
2009,07,16,17,43,25.80
2009,07,16,17,44,25.80
2009,07,16,17,45,25.90
2009,07,16,17,46,25.90
2009,07,16,17,47,25.90
2009,07,16,17,48,25.90
2009,07,16,17,49,25.90
2009,07,16,17,50,25.90
2009,07,16,17,51,25.80
2009,07,16,17,52,25.90
2009,07,16,17,53,25.90
2009,07,16,17,54,25.90
2009,07,16,17,55,25.90
2009,07,16,17,56,25.90
2009,07,16,17,57,25.90
2009,07,16,17,58,25.90
2009,07,16,17,59,26.00
2009,07,16,18,00,26.10
2009,07,16,18,01,26.10
2009,07,16,18,02,26.20
2009,07,16,18,03,26.20
2009,07,16,18,04,26.20
2009,07,16,18,05,26.30
2009,07,16,18,06,26.30
2009,07,16,18,07,26.40
2009,07,16,18,08,26.40
2009,07,16,18,09,26.40
2009,07,16,18,10,26.50
2009,07,16,18,11,26.50
2009,07,16,18,12,26.60
2009,07,16,18,13,26.50
2009,07,16,18,14,26.50
2009,07,16,18,15,26.40
2009,07,16,18,16,26.40
2009,07,16,18,17,26.30
2009,07,16,18,18,26.30
2009,07,16,18,19,26.30
2009,07,16,18,20,26.40
2009,07,16,18,21,26.30
2009,07,16,18,22,26.30
2009,07,16,18,23,26.30
2009,07,16,18,24,26.30
2009,07,16,18,25,26.30
2009,07,16,18,26,26.40
2009,07,16,18,27,26.40
2009,07,16,18,28,26.50
2009,07,16,18,29,26.60
2009,07,16,18,30,26.70
2009,07,16,18,31,26.60
2009,07,16,18,32,26.60
2009,07,16,18,33,26.60
2009,07,16,18,34,26.60
2009,07,16,18,35,26.50
2009,07,16,18,36,26.50
2009,07,16,18,37,26.50
2009,07,16,18,38,26.50
2009,07,16,18,39,26.50
2009,07,16,18,40,26.50
2009,07,16,18,41,26.50
2009,07,16,18,42,26.50
2009,07,16,18,43,26.50
2009,07,16,18,44,26.50
2009,07,16,18,45,26.50
